Terug naar catalogus

WESTFORD NEEDLES

ActiefPO
NORAD 2796·DEBRIS·🇺🇸 United States

Gelanceerd May 9, 1963 vanaf Vandenberg Space Force Base

Loading…

Volgende Passages (komende 24 uur)

TLE

VersSource: Space-Track

Epoch: Sep 14, 2026, 10:37 UTC

1 02796U 63014AQ  26257.44243456  .00000049  00000-0  16669-1 0  9994
2 02796  87.1950  77.4672 0615441  72.1755 294.5243  8.68458102932800

Volg WESTFORD NEEDLES in realtime met AllMySat

Download on the App Store